| time (UTC) | temp F | wind direction | speed knots | gust knots | rain 1hr in | rain 24hr in | rain mn in | humidity % | barometer mb |
| 20260502224211 | 60 | 57 | 0.9 | 0.9 | 0.00 | 0.45 | 0.45 | 76 | 1007.6 |
| 20260502223708 | 60 | 61 | 0.9 | 0.9 | 0.00 | 0.45 | 0.45 | 74 | 1007.7 |
| 20260502223206 | 60 | 49 | 0.0 | 0.9 | 0.00 | 0.45 | 0.45 | 75 | 1007.5 |
| 20260502222704 | 60 | 49 | 0.0 | 0.9 | 0.00 | 0.45 | 0.45 | 75 | 1007.6 |
| 20260502222200 | 60 | 57 | 0.9 | 1.7 | 0.00 | 0.45 | 0.45 | 73 | 1007.4 |
| 20260502221656 | 61 | 71 | 1.7 | 2.6 | 0.00 | 0.45 | 0.45 | 73 | 1007.7 |
| 20260502221153 | 61 | 75 | 1.7 | 1.7 | 0.00 | 0.45 | 0.45 | 73 | 1007.6 |
| 20260502220649 | 61 | 48 | 0.0 | 4.3 | 0.00 | 0.45 | 0.45 | 74 | 1007.8 |
| 20260502220145 | 60 | 45 | 0.0 | 0.9 | 0.00 | 0.45 | 0.45 | 75 | 1007.9 |
| 20260502215643 | 59 | 56 | 0.9 | 0.9 | 0.00 | 0.45 | 0.45 | 74 | 1007.8 |
| 20260502215139 | 60 | 57 | 0.9 | 0.9 | 0.00 | 0.45 | 0.45 | 73 | 1007.9 |
| 20260502214636 | 61 | 66 | 0.9 | 0.9 | 0.00 | 0.45 | 0.45 | 74 | 1007.9 |
| 20260502214128 | 60 | 44 | 0.0 | 1.7 | 0.00 | 0.45 | 0.45 | 74 | 1007.6 |
| 20260502213625 | 60 | 73 | 0.9 | 2.6 | 0.00 | 0.45 | 0.45 | 74 | 1007.7 |
| 20260502213122 | 60 | 45 | 0.0 | 1.7 | 0.00 | 0.45 | 0.45 | 75 | 1007.5 |
| 20260502212621 | 59 | 52 | 0.9 | 1.7 | 0.00 | 0.45 | 0.45 | 74 | 1007.5 |
| 20260502212119 | 60 | 68 | 1.7 | 1.7 | 0.00 | 0.45 | 0.45 | 75 | 1007.4 |
| 20260502211614 | 60 | 78 | 1.7 | 2.6 | 0.00 | 0.45 | 0.45 | 74 | 1007.3 |
| 20260502211112 | 60 | 65 | 1.7 | 2.6 | 0.00 | 0.45 | 0.45 | 74 | 1007.5 |
| 20260502210609 | 60 | 57 | 0.9 | 1.7 | 0.00 | 0.45 | 0.45 | 73 | 1007.4 |
| 20260502210106 | 60 | 83 | 2.6 | 2.6 | 0.00 | 0.45 | 0.45 | 76 | 1007.4 |
| 20260502205602 | 60 | 45 | 0.0 | 0.9 | 0.00 | 0.45 | 0.45 | 77 | 1007.7 |
| 20260502205059 | 60 | 54 | 0.9 | 0.9 | 0.00 | 0.45 | 0.45 | 77 | 1007.5 |
| 20260502204556 | 59 | 46 | 0.0 | 0.9 | 0.00 | 0.45 | 0.45 | 77 | 1007.5 |
| 20260502204054 | 59 | 48 | 0.9 | 1.7 | 0.00 | 0.45 | 0.45 | 78 | 1007.6 |
| 20260502203550 | 59 | 55 | 0.9 | 1.7 | 0.00 | 0.45 | 0.45 | 79 | 1007.7 |
| 20260502203042 | 58 | 74 | 1.7 | 2.6 | 0.00 | 0.45 | 0.45 | 80 | 1007.6 |
| 20260502202538 | 59 | 38 | 0.9 | 1.7 | 0.00 | 0.45 | 0.45 | 82 | 1007.6 |
| 20260502202036 | 58 | 62 | 0.9 | 1.7 | 0.00 | 0.45 | 0.45 | 81 | 1007.7 |
| 20260502201532 | 58 | 65 | 0.0 | 0.9 | 0.00 | 0.45 | 0.45 | 82 | 1007.7 |
| 20260502201029 | 58 | 75 | 1.7 | 1.7 | 0.00 | 0.45 | 0.45 | 82 | 1008.0 |
| 20260502200524 | 58 | 58 | 0.9 | 0.9 | 0.00 | 0.45 | 0.45 | 82 | 1007.8 |
| 20260502200023 | 58 | 35 | 0.9 | 1.7 | 0.00 | 0.45 | 0.45 | 82 | 1008.1 |
| 20260502195521 | 58 | 80 | 1.7 | 2.6 | 0.00 | 0.45 | 0.45 | 82 | 1008.2 |
| 20260502195015 | 58 | 44 | 0.0 | 0.0 | 0.00 | 0.45 | 0.45 | 83 | 1008.2 |
| 20260502194513 | 59 | 51 | 0.0 | 0.9 | 0.00 | 0.45 | 0.45 | 83 | 1008.0 |
| 20260502194009 | 59 | 57 | 0.9 | 0.9 | 0.00 | 0.45 | 0.45 | 84 | 1007.9 |
| 20260502193506 | 58 | 50 | 0.9 | 1.7 | 0.00 | 0.45 | 0.45 | 84 | 1008.0 |
| 20260502193003 | 58 | 48 | 0.9 | 0.9 | 0.00 | 0.45 | 0.45 | 84 | 1008.1 |
| 20260502192458 | 58 | 46 | 0.0 | 0.9 | 0.00 | 0.45 | 0.45 | 85 | 1008.1 |
| 20260502191956 | 57 | 57 | 0.9 | 2.6 | 0.00 | 0.45 | 0.45 | 84 | 1008.2 |
| 20260502191453 | 57 | 50 | 0.9 | 1.7 | 0.00 | 0.45 | 0.45 | 85 | 1008.1 |
| 20260502190951 | 58 | 80 | 0.9 | 1.7 | 0.00 | 0.45 | 0.45 | 86 | 1008.2 |
| 20260502190448 | 57 | 43 | 0.0 | 0.9 | 0.00 | 0.45 | 0.45 | 86 | 1008.5 |
| 20260502185944 | 57 | 59 | 0.9 | 1.7 | 0.00 | 0.45 | 0.45 | 86 | 1008.3 |
| 20260502185440 | 57 | 41 | 0.0 | 1.7 | 0.00 | 0.45 | 0.45 | 86 | 1008.3 |
| 20260502184937 | 57 | 69 | 0.9 | 1.7 | 0.00 | 0.45 | 0.45 | 86 | 1008.4 |
| 20260502184432 | 57 | 67 | 0.9 | 0.9 | 0.00 | 0.45 | 0.45 | 86 | 1008.2 |
| 20260502183928 | 57 | 47 | 0.9 | 1.7 | 0.00 | 0.45 | 0.45 | 86 | 1008.4 |
| 20260502183425 | 58 | 49 | 0.0 | 1.7 | 0.00 | 0.45 | 0.45 | 86 | 1008.3 |
| 20260502182920 | 58 | 47 | 0.0 | 0.9 | 0.00 | 0.45 | 0.45 | 87 | 1008.5 |
| 20260502182416 | 57 | 53 | 0.9 | 1.7 | 0.00 | 0.45 | 0.45 | 87 | 1008.3 |
| 20260502181912 | 57 | 47 | 0.0 | 0.9 | 0.00 | 0.45 | 0.45 | 87 | 1008.3 |
| 20260502181411 | 57 | 45 | 0.0 | 0.9 | 0.00 | 0.45 | 0.45 | 87 | 1008.3 |
| 20260502180909 | 57 | 50 | 0.0 | 0.9 | 0.00 | 0.45 | 0.45 | 87 | 1008.5 |
| 20260502180406 | 57 | 63 | 0.9 | 2.6 | 0.00 | 0.45 | 0.45 | 87 | 1008.2 |
| 20260502170324 | 57 | 53 | 0.9 | 1.7 | 0.00 | 0.45 | 0.45 | 94 | 1008.1 |
| 20260502164312 | 57 | 49 | 0.0 | 0.9 | 0.00 | 0.45 | 0.45 | 95 | 1008.3 |
| 20260502163808 | 57 | 55 | 0.0 | 0.0 | 0.00 | 0.45 | 0.45 | 95 | 1008.5 |
| 20260502163304 | 57 | 50 | 0.9 | 0.9 | 0.00 | 0.45 | 0.45 | 95 | 1008.5 |
| 20260502162801 | 58 | 53 | 0.0 | 0.0 | 0.00 | 0.45 | 0.45 | 95 | 1008.3 |
| 20260502162258 | 58 | 52 | 0.0 | 0.0 | 0.00 | 0.45 | 0.45 | 95 | 1008.2 |
| 20260502161754 | 57 | 50 | 0.0 | 0.9 | 0.00 | 0.45 | 0.45 | 95 | 1008.6 |
| 20260502161246 | 58 | 55 | 0.9 | 0.9 | 0.05 | 0.45 | 0.45 | 95 | 1008.3 |
| 20260502160744 | 57 | 50 | 0.0 | 0.9 | 0.12 | 0.45 | 0.45 | 95 | 1008.0 |
| 20260502160243 | 57 | 55 | 0.9 | 1.7 | 0.07 | 0.44 | 0.44 | 95 | 1007.9 |
| 20260502152212 | 59 | 56 | 0.0 | 0.0 | 0.00 | 0.41 | 0.41 | 96 | 1008.6 |
| 20260502151709 | 60 | 56 | 0.0 | 0.9 | 0.00 | 0.41 | 0.41 | 96 | 1008.3 |
| 20260502151206 | 60 | 56 | 0.0 | 0.9 | 0.00 | 0.41 | 0.41 | 96 | 1007.9 |
| 20260502150704 | 60 | 55 | 0.0 | 0.0 | 0.00 | 0.41 | 0.41 | 96 | 1008.1 |
| 20260502150200 | 60 | 53 | 0.0 | 0.0 | 0.00 | 0.41 | 0.41 | 96 | 1008.0 |
| 20260502140124 | 59 | 47 | 0.0 | 0.0 | 0.07 | 0.37 | 0.37 | 96 | 1008.3 |
| 20260502130549 | 59 | 49 | 0.0 | 0.9 | 0.00 | 0.35 | 0.35 | 95 | 1007.6 |
| 20260502123532 | 59 | 32 | 0.0 | 0.0 | 0.05 | 0.34 | 0.34 | 95 | 1008.5 |
| 20260502123028 | 59 | 25 | 0.9 | 1.7 | 0.05 | 0.34 | 0.34 | 95 | 1008.6 |
| 20260502122525 | 59 | 26 | 1.7 | 2.6 | 0.07 | 0.33 | 0.33 | 95 | 1008.9 |
| 20260502122022 | 59 | 345 | 2.6 | 2.6 | 0.07 | 0.33 | 0.33 | 95 | 1008.6 |
| 20260502121520 | 59 | 43 | 0.0 | 0.9 | 0.05 | 0.32 | 0.32 | 95 | 1008.3 |
| 20260502121017 | 59 | 44 | 0.9 | 0.9 | 0.05 | 0.32 | 0.32 | 95 | 1008.3 |
| 20260502120513 | 59 | 49 | 0.0 | 0.0 | 0.07 | 0.31 | 0.31 | 94 | 1007.8 |
| 20260502115508 | 58 | 49 | 0.0 | 0.0 | 0.12 | 0.30 | 0.30 | 94 | 1007.7 |
| 20260502115004 | 59 | 49 | 0.0 | 0.0 | 0.07 | 0.29 | 0.29 | 94 | 1007.5 |
| 20260502114501 | 58 | 49 | 0.0 | 0.0 | 0.00 | 0.28 | 0.28 | 93 | 1007.1 |
| 20260502113957 | 58 | 49 | 0.0 | 0.0 | 0.00 | 0.28 | 0.28 | 93 | 1007.2 |
| 20260502113455 | 58 | 49 | 0.0 | 0.0 | 0.07 | 0.28 | 0.28 | 93 | 1006.9 |
| 20260502112954 | 58 | 49 | 0.0 | 0.0 | 0.12 | 0.28 | 0.28 | 93 | 1007.1 |
| 20260502112451 | 58 | 49 | 0.0 | 0.0 | 0.12 | 0.27 | 0.27 | 93 | 1007.0 |
| 20260502111948 | 58 | 49 | 0.0 | 0.0 | 0.12 | 0.26 | 0.26 | 93 | 1006.9 |
| 20260502111445 | 58 | 49 | 0.0 | 0.0 | 0.05 | 0.25 | 0.25 | 93 | 1007.1 |
| 20260502110943 | 58 | 49 | 0.0 | 0.0 | 0.07 | 0.24 | 0.24 | 93 | 1007.0 |
| 20260502110440 | 58 | 49 | 0.0 | 0.0 | 0.07 | 0.24 | 0.24 | 93 | 1006.8 |
| 20260502105937 | 58 | 49 | 0.0 | 0.0 | 0.00 | 0.23 | 0.23 | 92 | 1006.8 |
| 20260502105435 | 58 | 49 | 0.0 | 0.0 | 0.00 | 0.23 | 0.23 | 92 | 1006.6 |
| 20260502104933 | 58 | 49 | 0.0 | 0.0 | 0.00 | 0.23 | 0.23 | 92 | 1006.8 |
| 20260502104430 | 59 | 49 | 0.0 | 0.0 | 0.00 | 0.23 | 0.23 | 92 | 1006.3 |
| 20260502103927 | 58 | 49 | 0.0 | 0.0 | 0.00 | 0.23 | 0.23 | 91 | 1006.0 |
| 20260502103425 | 58 | 49 | 0.0 | 0.0 | 0.05 | 0.23 | 0.23 | 91 | 1006.4 |
| 20260502102921 | 58 | 49 | 0.0 | 0.0 | 0.12 | 0.23 | 0.23 | 91 | 1006.4 |
| 20260502102418 | 59 | 50 | 0.0 | 0.0 | 0.07 | 0.22 | 0.22 | 91 | 1006.4 |
| 20260502101915 | 59 | 50 | 0.0 | 0.0 | 0.05 | 0.21 | 0.21 | 91 | 1006.4 |
| 20260502101414 | 59 | 50 | 0.0 | 0.0 | 0.05 | 0.21 | 0.21 | 91 | 1006.6 |
| 20260502100911 | 59 | 49 | 0.0 | 0.0 | 0.07 | 0.20 | 0.20 | 91 | 1006.7 |
| 20260502100410 | 59 | 49 | 0.0 | 0.0 | 0.12 | 0.20 | 0.20 | 90 | 1006.6 |
| 20260502091343 | 59 | 50 | 0.0 | 0.0 | 0.07 | 0.13 | 0.13 | 89 | 1007.5 |
| 20260502090842 | 59 | 50 | 0.0 | 0.0 | 0.05 | 0.12 | 0.12 | 89 | 1007.5 |
| 20260502090338 | 59 | 50 | 0.0 | 0.0 | 0.05 | 0.12 | 0.12 | 89 | 1007.4 |
| 20260502071233 | 59 | 58 | 0.0 | 0.0 | 0.00 | 0.00 | 0.00 | 86 | 1007.5 |
| 20260502070731 | 60 | 59 | 0.0 | 0.0 | 0.00 | 0.00 | 0.00 | 86 | 1007.4 |
| 20260502070229 | 60 | 59 | 0.0 | 0.0 | 0.00 | 0.00 | 0.00 | 86 | 1007.5 |
| 20260502065727 | 60 | 59 | 0.0 | 0.9 | 0.00 | 0.00 | 0.00 | 85 | 1007.5 |
| 20260502065225 | 60 | 59 | 0.0 | 0.0 | 0.00 | 0.00 | 0.00 | 85 | 1007.5 |
| 20260502064723 | 60 | 59 | 0.0 | 0.0 | 0.00 | 0.00 | 0.00 | 85 | 1007.3 |
| 20260502064220 | 60 | 59 | 0.0 | 0.0 | 0.00 | 0.00 | 0.00 | 85 | 1007.4 |
| 20260502063718 | 60 | 59 | 0.0 | 0.0 | 0.00 | 0.00 | 0.00 | 85 | 1007.3 |
| 20260502063215 | 60 | 60 | 0.0 | 0.0 | 0.00 | 0.00 | 0.00 | 85 | 1007.3 |
| 20260502062712 | 60 | 60 | 0.0 | 0.0 | 0.00 | 0.00 | 0.00 | 85 | 1007.4 |
| 20260502062210 | 60 | 59 | 0.0 | 0.0 | 0.00 | 0.00 | 0.00 | 85 | 1007.2 |
| 20260502061708 | 60 | 60 | 0.0 | 0.0 | 0.00 | 0.00 | 0.00 | 85 | 1007.4 |
| 20260502061205 | 60 | 60 | 0.0 | 0.0 | 0.00 | 0.00 | 0.00 | 85 | 1007.3 |
| 20260502060700 | 60 | 60 | 0.0 | 0.0 | 0.00 | 0.00 | 0.00 | 85 | 1007.3 |
| 20260502060157 | 60 | 60 | 0.0 | 0.0 | 0.00 | 0.00 | 0.00 | 85 | 1007.3 |
| 20260502055655 | 60 | 60 | 0.0 | 0.0 | 0.00 | 0.00 | 0.00 | 84 | 1007.7 |
| 20260502055152 | 60 | 60 | 0.0 | 0.0 | 0.00 | 0.00 | 0.00 | 84 | 1007.6 |
| 20260502054652 | 60 | 60 | 0.0 | 0.0 | 0.00 | 0.00 | 0.00 | 84 | 1007.6 |
| 20260502054148 | 60 | 59 | 0.0 | 0.0 | 0.00 | 0.00 | 0.00 | 84 | 1007.6 |
| 20260502053646 | 60 | 60 | 0.0 | 0.0 | 0.00 | 0.00 | 0.00 | 84 | 1007.9 |
| 20260502053143 | 60 | 60 | 0.0 | 0.0 | 0.00 | 0.00 | 0.00 | 84 | 1007.8 |
| 20260502052641 | 60 | 60 | 0.0 | 0.0 | 0.00 | 0.00 | 0.00 | 83 | 1007.9 |
| 20260502052139 | 60 | 60 | 0.0 | 0.0 | 0.00 | 0.00 | 0.00 | 83 | 1007.9 |
| 20260502051637 | 60 | 59 | 0.0 | 0.0 | 0.00 | 0.00 | 0.00 | 83 | 1008.0 |
| 20260502051134 | 60 | 60 | 0.0 | 0.0 | 0.00 | 0.00 | 0.00 | 83 | 1008.1 |
| 20260502050630 | 60 | 60 | 0.0 | 0.0 | 0.00 | 0.00 | 0.00 | 82 | 1008.2 |
| 20260502050127 | 60 | 60 | 0.0 | 0.0 | 0.00 | 0.00 | 0.00 | 82 | 1008.0 |
| 20260502045624 | 60 | 60 | 0.0 | 0.0 | 0.00 | 0.00 | 0.00 | 82 | 1008.0 |
| 20260502045121 | 60 | 60 | 0.0 | 0.0 | 0.00 | 0.00 | 0.00 | 82 | 1007.8 |
| 20260502044617 | 60 | 60 | 0.9 | 0.9 | 0.00 | 0.00 | 0.00 | 82 | 1008.0 |
| 20260502044114 | 60 | 60 | 0.9 | 0.9 | 0.00 | 0.00 | 0.00 | 81 | 1007.9 |
| 20260502043612 | 60 | 60 | 0.0 | 0.0 | 0.00 | 0.00 | 0.00 | 81 | 1008.0 |
| 20260502043108 | 60 | 60 | 0.0 | 0.0 | 0.00 | 0.00 | 0.00 | 81 | 1008.0 |
| 20260502042603 | 60 | 60 | 0.0 | 0.9 | 0.00 | 0.00 | 0.00 | 81 | 1008.3 |
| 20260502042100 | 60 | 60 | 0.0 | 0.0 | 0.00 | 0.00 | 0.00 | 81 | 1008.0 |
| 20260502041558 | 61 | 60 | 0.0 | 0.9 | 0.00 | 0.00 | 0.00 | 81 | 1008.2 |
| 20260502041055 | 61 | 60 | 0.0 | 0.0 | 0.00 | 0.00 | 0.00 | 81 | 1008.3 |
| 20260502040551 | 61 | 60 | 0.0 | 0.0 | 0.00 | 0.00 | 0.00 | 81 | 1008.4 |
| 20260502040049 | 61 | 60 | 0.0 | 0.0 | 0.00 | 0.00 | 0.00 | 80 | 1008.5 |
| 20260502035544 | 61 | 60 | 0.0 | 0.0 | 0.00 | 0.00 | 0.00 | 80 | 1008.4 |
| 20260502035042 | 61 | 60 | 0.0 | 0.0 | 0.00 | 0.00 | 0.00 | 80 | 1008.3 |
| 20260502034540 | 61 | 60 | 0.0 | 0.0 | 0.00 | 0.00 | 0.00 | 79 | 1008.4 |
| 20260502034038 | 61 | 60 | 0.0 | 0.0 | 0.00 | 0.00 | 0.00 | 79 | 1008.6 |
| 20260502033536 | 61 | 60 | 0.0 | 0.0 | 0.00 | 0.00 | 0.00 | 79 | 1008.3 |
| 20260502033033 | 61 | 60 | 0.0 | 0.0 | 0.00 | 0.00 | 0.00 | 79 | 1008.4 |
| 20260502032529 | 61 | 60 | 0.0 | 0.0 | 0.00 | 0.00 | 0.00 | 79 | 1008.3 |
| 20260502032026 | 60 | 60 | 0.0 | 0.0 | 0.00 | 0.00 | 0.00 | 79 | 1008.4 |
| 20260502031524 | 60 | 60 | 0.0 | 0.0 | 0.00 | 0.00 | 0.00 | 79 | 1008.2 |
| 20260502031021 | 60 | 60 | 0.0 | 0.0 | 0.00 | 0.00 | 0.00 | 80 | 1008.1 |
| 20260502030520 | 60 | 60 | 0.0 | 0.0 | 0.00 | 0.00 | 0.00 | 80 | 1008.4 |
| 20260502030018 | 60 | 60 | 0.0 | 0.0 | 0.00 | 0.00 | 0.00 | 80 | 1008.5 |
| 20260502025515 | 60 | 60 | 0.0 | 0.0 | 0.00 | 0.00 | 0.00 | 80 | 1008.4 |
| 20260502025013 | 60 | 60 | 0.0 | 0.0 | 0.00 | 0.00 | 0.00 | 80 | 1008.4 |
| 20260502024510 | 60 | 51 | 0.0 | 0.9 | 0.00 | 0.00 | 0.00 | 80 | 1008.5 |
| 20260502024008 | 61 | 51 | 0.0 | 0.0 | 0.00 | 0.00 | 0.00 | 79 | 1008.4 |
| 20260502023505 | 61 | 51 | 0.0 | 0.0 | 0.00 | 0.00 | 0.00 | 79 | 1008.3 |
| 20260502023002 | 61 | 51 | 0.0 | 0.0 | 0.00 | 0.00 | 0.00 | 78 | 1008.3 |
| 20260502022459 | 61 | 51 | 0.0 | 0.0 | 0.00 | 0.00 | 0.00 | 78 | 1008.3 |
| 20260502021956 | 61 | 51 | 0.0 | 0.0 | 0.00 | 0.00 | 0.00 | 78 | 1008.4 |
| 20260502021454 | 61 | 51 | 0.0 | 0.0 | 0.00 | 0.00 | 0.00 | 78 | 1008.2 |
| 20260502020950 | 61 | 51 | 0.0 | 0.0 | 0.00 | 0.00 | 0.00 | 78 | 1008.2 |
| 20260502020449 | 61 | 51 | 0.0 | 0.0 | 0.00 | 0.00 | 0.00 | 79 | 1008.3 |
| 20260502015944 | 62 | 51 | 0.0 | 0.0 | 0.00 | 0.00 | 0.00 | 79 | 1008.3 |
| 20260502015443 | 62 | 57 | 0.0 | 0.0 | 0.00 | 0.00 | 0.00 | 79 | 1008.2 |
| 20260502014939 | 62 | 57 | 0.0 | 0.0 | 0.00 | 0.00 | 0.00 | 79 | 1008.1 |
| 20260502014436 | 62 | 57 | 0.0 | 0.0 | 0.00 | 0.00 | 0.00 | 78 | 1008.2 |
| 20260502013933 | 62 | 57 | 0.0 | 0.0 | 0.00 | 0.00 | 0.00 | 78 | 1008.0 |
| 20260502013428 | 62 | 57 | 0.9 | 0.9 | 0.00 | 0.00 | 0.00 | 77 | 1008.1 |
| 20260502012925 | 62 | 57 | 0.0 | 0.0 | 0.00 | 0.00 | 0.00 | 77 | 1008.1 |
| 20260502012422 | 62 | 57 | 0.0 | 0.0 | 0.00 | 0.00 | 0.00 | 76 | 1007.9 |
| 20260502011920 | 62 | 59 | 0.0 | 0.0 | 0.00 | 0.00 | 0.00 | 76 | 1007.9 |
| 20260502011415 | 62 | 59 | 0.0 | 0.0 | 0.00 | 0.00 | 0.00 | 76 | 1008.0 |
| 20260502010913 | 62 | 59 | 0.0 | 0.0 | 0.00 | 0.00 | 0.00 | 76 | 1007.8 |
| 20260502010409 | 62 | 59 | 0.0 | 0.9 | 0.00 | 0.00 | 0.00 | 77 | 1007.7 |
| 20260502005906 | 63 | 59 | 0.0 | 0.9 | 0.00 | 0.00 | 0.00 | 77 | 1007.5 |
| 20260502005404 | 63 | 59 | 0.0 | 0.9 | 0.00 | 0.00 | 0.00 | 76 | 1007.4 |
| 20260502004902 | 63 | 59 | 0.0 | 0.0 | 0.00 | 0.00 | 0.00 | 75 | 1007.6 |
| 20260502004357 | 63 | 59 | 0.0 | 0.0 | 0.00 | 0.00 | 0.00 | 74 | 1007.6 |
| 20260502003855 | 63 | 60 | 0.0 | 0.0 | 0.00 | 0.00 | 0.00 | 73 | 1007.3 |
| 20260502003352 | 63 | 60 | 0.0 | 0.0 | 0.00 | 0.00 | 0.00 | 73 | 1007.5 |
| 20260502002848 | 63 | 60 | 0.0 | 0.0 | 0.00 | 0.00 | 0.00 | 73 | 1007.4 |
| 20260502002345 | 63 | 61 | 0.0 | 0.0 | 0.00 | 0.00 | 0.00 | 72 | 1007.4 |
| 20260502001843 | 64 | 61 | 0.0 | 0.0 | 0.00 | 0.00 | 0.00 | 72 | 1007.5 |
| 20260502001340 | 64 | 61 | 0.0 | 0.0 | 0.00 | 0.00 | 0.00 | 72 | 1007.5 |
| 20260502000838 | 64 | 61 | 0.0 | 0.0 | 0.00 | 0.00 | 0.00 | 71 | 1007.4 |
| 20260502000336 | 64 | 61 | 0.0 | 0.0 | 0.00 | 0.00 | 0.00 | 71 | 1007.5 |
| 20260501235832 | 64 | 61 | 0.0 | 0.0 | 0.00 | 0.00 | 0.00 | 70 | 1007.2 |
| 20260501235327 | 64 | 61 | 0.0 | 0.0 | 0.00 | 0.00 | 0.00 | 69 | 1006.9 |
| 20260501234823 | 64 | 61 | 0.0 | 0.0 | 0.00 | 0.00 | 0.00 | 68 | 1006.9 |
| 20260501234320 | 65 | 61 | 0.0 | 0.0 | 0.00 | 0.00 | 0.00 | 68 | 1007.2 |
| 20260501233819 | 65 | 61 | 0.0 | 0.0 | 0.00 | 0.00 | 0.00 | 67 | 1007.1 |
| 20260501233316 | 65 | 61 | 0.0 | 0.0 | 0.00 | 0.00 | 0.00 | 66 | 1006.8 |
| 20260501232811 | 65 | 61 | 0.0 | 0.0 | 0.00 | 0.00 | 0.00 | 66 | 1006.8 |
| 20260501232308 | 65 | 61 | 0.0 | 0.0 | 0.00 | 0.00 | 0.00 | 65 | 1006.7 |
| 20260501231806 | 66 | 61 | 0.0 | 0.0 | 0.00 | 0.00 | 0.00 | 64 | 1006.7 |
| 20260501231304 | 66 | 61 | 0.0 | 0.0 | 0.00 | 0.00 | 0.00 | 64 | 1006.9 |
| 20260501230802 | 66 | 61 | 0.0 | 0.0 | 0.00 | 0.00 | 0.00 | 64 | 1006.7 |
| 20260501230300 | 66 | 62 | 0.0 | 0.0 | 0.00 | 0.00 | 0.00 | 64 | 1007.1 |
| 20260501225757 | 66 | 62 | 0.0 | 0.9 | 0.00 | 0.00 | 0.00 | 64 | 1007.1 |
| 20260501225255 | 67 | 62 | 0.0 | 0.9 | 0.00 | 0.00 | 0.00 | 63 | 1007.3 |
| 20260501224751 | 67 | 62 | 0.0 | 0.0 | 0.00 | 0.00 | 0.00 | 64 | 1007.4 |